Location: Dackenheim
(49.5215°N, 8.1854°E)
Time: 03:13:55
(UTC+00:00)

AO-91 - Pass Details

Date: 21 March 2026
Orbit: 425 x 637 km, 97.5° (Epoch: 13 April)

Event Time Altitude Azimuth Distance (km) Brightness Sun altitude
Rises 20:49:21 0° 11° (N) 2,946 ? -28.8°
Reaches altitude 10° 20:51:36 10° 9° (N) 2,020 ? -29.1°
Enters shadow 20:53:56 30° 3° (N) 1,117 ? -29.3°
